Flag for Germany Weather past 2 weeks in Gaggenau, Baden-Württemberg, Germany

Now
68 °F

Broken clouds.


Feels Like: 68 °F
Forecast: 60 / 81 °F
Wind: 12 mph from Southwest

Location: Karlsruhe - Baden Wurttemberg

Current Time: Jul 26, 2014 at 5:22:19 PM

Latest Report: Jul 26, 2014 at 4:50 PM


Visibility: N/A

Pressure: 29.95 "Hg

Humidity: 78%

Dew point: 61 °F

Location of GaggenauLocation

Historic Weather in Gaggenau — Graph

°F

Gaggenau temperature yesterday

Maximum temperature yesterday: 81 °F (at 3:50 PM)
Minimum temperature yesterday: 61 °F (at 5:20 AM)
Average temperature yesterday: 71 °F

Past Weeks' High & Low Weather Summary

 TemperatureHumidityPressure
High93 °F (Jul 19, 5:20 PM)94% (Jul 12, 5:50 AM)30.18 "Hg (Jul 12, 5:50 AM)
Low57 °F (Jul 15, 6:20 AM)24% (Jul 18, 4:20 PM)29.80 "Hg (Jul 13, 5:20 PM)
Average72 °F65%29.96 "Hg
* Reported Jul 11 4:20 PM — Jul 26 4:20 PM, Gaggenau, Weather by CustomWeather, © 2014

Note: Actual official high and low records may vary slightly from our data, if they occured in-between our weather recording intervals... More about our weather records

Advertising

Gaggenau weather history for previous 24 hours

 ConditionsComfort  
Time TempWeatherWind HumidityBarometerVisibility
4:20 PM
Jul 26
68 °FSprinkles. Partly sunny.12 mph78%29.95 "HgN/A
3:50 PM68 °FSprinkles. Broken clouds.13 mph78%29.95 "HgN/A
3:20 PM70 °FSprinkles. Broken clouds.10 mph78%29.95 "HgN/A
2:50 PM70 °FSprinkles. Partly sunny.6 mph73%29.95 "HgN/A
2:20 PM72 °FBroken clouds.5 mph65%29.95 "HgN/A
1:50 PM72 °FBroken clouds.7 mph65%29.95 "HgN/A
1:20 PM72 °FBroken clouds.5 mph65%29.95 "HgN/A
12:50 PM72 °FBroken clouds.6 mph65%29.95 "HgN/A
12:20 PM72 °FPartly sunny.8 mph65%29.95 "HgN/A
11:50 AM72 °FPartly sunny.6 mph69%29.95 "HgN/A
11:20 AM70 °FBroken clouds.5 mph73%29.95 "HgN/A
10:50 AM70 °FBroken clouds.5 mph69%29.95 "HgN/A
10:20 AM68 °FScattered clouds.6 mph73%29.92 "HgN/A
9:50 AM68 °FBroken clouds.7 mph73%29.92 "Hg6 mi
9:20 AM68 °FPassing clouds.6 mph78%29.92 "HgN/A
8:50 AM66 °FPassing clouds.5 mph83%29.92 "HgN/A
8:20 AM66 °FSunny.7 mph83%29.92 "Hg10 mi
7:50 AM64 °FSunny.5 mph88%29.89 "Hg10 mi
7:20 AM64 °FSunny.2 mph88%29.89 "Hg10 mi
6:50 AM64 °FClear.2 mph88%29.89 "Hg10 mi
6:20 AM64 °FClear.1 mph88%29.89 "Hg10 mi
5:50 AM63 °FClear.2 mph88%29.89 "Hg10 mi
5:20 AM64 °FClear.No wind83%29.89 "Hg10 mi
4:50 AM63 °FClear.2 mph88%29.89 "Hg10 mi
10:50 PM
Jul 25
68 °FClear.2 mph69%29.86 "Hg10 mi
10:20 PM68 °FClear.5 mph73%29.89 "Hg10 mi
9:50 PM68 °FSunny.3 mph73%29.89 "Hg10 mi
9:20 PM70 °FSunny.2 mph64%29.86 "Hg10 mi
8:50 PM72 °FSunny.2 mph61%29.86 "Hg10 mi
8:20 PM73 °FSunny.9 mph57%29.86 "Hg10 mi
7:50 PM77 °FSunny.1 mph54%29.86 "Hg10 mi
7:20 PM79 °FPassing clouds.7 mph51%29.86 "HgN/A
6:50 PM79 °FSunny.7 mph48%29.86 "Hg10 mi
6:20 PM79 °FScattered showers. Passing clouds.3 mph48%29.86 "HgN/A
5:50 PM81 °FScattered showers. Passing clouds.3 mph45%29.83 "HgN/A
5:20 PM79 °FScattered showers. Scattered clouds.5 mph48%29.83 "HgN/A
Weather by CustomWeather, © 2014

See weather overviewHow to use our weather pages